Temp
14 15 15 15 15 15 15 15 15 15 15 16 16 16 16 16 16 16 16 16 16 16 16 16 16 16 16 17 17 17 17 17 17 17 17 17 17 17 17 17 17 17 17 17 17 16 16 16 16 16 16 16 16 16 16 16 16 16 16 15 15 15 15 14 15 15 14 14 14
14 14 14 14 14 14 14 15 15 15 15 15 15 15 15 15 15 15 15 16 16 16 16 16 16 16 16 16 16 16 16 16 16 16 16 17 17 17 17 17 17 17 17 17 17 16 16 16 16 16 16 16 16 15 15 15 15 16 15 15 15 14 14 14 15 15 14 14 14
14 14 14 14 14 14 14 14 14 14 14 14 14 14 14 15 15 15 15 15 15 15 15 15 15 15 15 15 16 16 16 16 16 16 16 16 16 16 16 16 16 16 16 16 16 16 16 16 15 15 15 15 15 15 15 15 15 15 15 15 14 14 14 14 15 14 14 14 14
14 14 14 14 14 14 14 14 14 14 14 14 14 14 14 14 14 14 14 14 14 14 15 15 15 15 15 15 15 15 15 15 15 15 15 16 16 16 16 16 16 16 16 16 16 16 16 16 15 15 15 15 15 15 15 15 15 15 14 14 14 14 14 14 14 14 14 14 13
13 13 13 13 13 13 13 13 13 13 13 13 13 14 14 14 14 14 14 14 14 14 14 14 14 14 15 15 15 15 15 15 15 15 15 15 15 15 15 16 16 16 16 16 16 16 16 16 15 15 15 15 15 14 14 14 14 14 14 14 14 14 14 14 14 14 14 14 13
13 13 13 13 13 13 13 13 13 13 13 13 13 13 13 13 14 14 14 14 14 14 14 14 14 14 14 14 14 15 15 15 15 15 15 15 15 15 15 15 16 16 16 16 16 15 15 15 15 15 15 14 14 14 14 14 14 14 14 14 14 14 14 14 14 14 14 13 13
13 13 13 13 13 13 13 13 13 13 13 13 13 13 13 13 13 13 13 13 14 14 14 14 14 14 14 14 14 14 14 14 14 14 14 15 15 15 15 15 15 15 15 15 15 15 15 14 14 14 14 14 14 14 14 14 14 14 14 14 14 14 14 14 14 14 14 13 13
12 12 12 13 13 13 13 13 13 13 13 13 13 13 13 13 13 13 13 13 13 13 13 13 13 13 14 14 13 13 13 13 14 14 14 14 14 15 15 14 14 15 14 14 14 14 14 14 14 14 14 13 13 13 13 14 14 14 14 14 14 14 14 14 14 13 13 13 13
12 12 12 12 12 12 12 12 12 12 12 12 12 12 12 12 12 12 12 13 13 13 13 13 13 13 13 12 12 12 13 13 13 13 13 14 14 14 14 14 14 14 14 14 14 14 14 14 13 13 13 13 13 13 14 14 14 14 14 14 14 14 13 13 13 13 13 13 13
11 11 11 11 11 11 12 12 12 12 12 12 12 12 12 12 12 12 12 12 12 12 12 12 12 12 12 11 12 12 12 12 12 12 12 13 13 13 13 13 13 13 13 13 13 13 13 13 13 13 13 13 13 13 14 14 14 14 14 13 13 13 13 13 13 12 12 12 12
11 11 11 11 11 11 11 11 11 11 11 11 11 11 11 11 11 11 11 11 11 11 11 11 11 11 11 11 11 11 11 11 12 12 12 12 12 12 12 12 12 12 12 12 13 12 12 12 12 12 12 13 13 13 13 13 13 13 13 13 13 13 12 12 12 12 12 12 12
10 10 10 10 10 11 11 11 10 11 11 11 11 10 10 10 10 10 10 10 10 10 10 10 10 10 10 10 11 11 11 11 11 11 11 11 11 11 11 11 11 11 11 12 12 12 11 11 12 12 12 13 13 13 13 13 13 13 13 12 12 12 12 12 12 12 12 12 11
10 10 10 10 10 10 10 10 10 10 10 10 10 9 9 9 9 10 10 10 9 9 10 10 10 10 10 10 10 10 10 10 10 10 10 10 10 10 10 10 11 11 11 11 11 11 11 11 12 12 12 13 13 13 13 12 12 12 12 12 11 11 12 12 12 12 12 11 11
9 9 9 10 10 10 10 10 9 9 9 9 8 8 9 9 9 9 9 9 9 9 9 9 10 10 10 10 10 10 10 10 10 10 10 10 10 10 10 10 10 10 10 10 11 11 11 12 12 12 12 12 12 12 12 12 11 11 11 11 11 11 11 11 11 11 11 11 11
9 9 9 9 9 9 9 9 8 8 8 8 8 8 8 8 9 9 9 9 9 9 9 9 9 9 9 9 9 9 9 9 9 9 10 10 10 10 10 10 10 10 10 10 11 11 11 11 12 12 12 12 12 11 11 11 11 11 11 11 11 11 11 10 10 10 10 10 10
8 8 8 8 8 8 8 8 8 8 8 8 8 8 8 8 8 8 8 8 8 8 8 8 9 9 9 9 9 9 9 9 9 9 9 9 9 9 9 9 10 10 10 10 10 11 11 11 11 11 11 11 11 11 10 10 10 10 10 10 10 10 10 10 10 9 9 9 9
8 8 8 8 7 7 7 7 7 8 8 8 8 8 8 8 8 8 8 8 8 8 8 8 9 9 9 9 9 8 8 8 8 9 9 9 9 9 9 9 9 9 9 10 10 10 10 10 10 10 10 10 10 10 10 10 9 9 9 9 9 9 9 9 9 8 8 8 8
8 7 7 7 7 7 7 7 7 8 8 8 8 8 8 8 8 8 8 8 8 8 8 8 8 8 8 8 8 8 8 8 8 8 8 8 8 8 8 8 8 9 9 9 9 9 9 9 9 9 9 9 9 9 9 9 9 9 9 8 8 8 8 8 8 8 7 7 7
8 7 7 7 7 7 7 7 7 7 8 8 8 8 8 8 7 7 7 7 7 7 7 8 8 8 8 8 8 8 8 8 8 8 8 8 8 8 8 8 8 8 8 8 8 9 9 9 9 9 9 9 9 9 9 8 8 8 8 8 7 7 7 7 7 7 7 7 7
7 7 7 7 7 7 7 7 7 7 7 8 8 8 8 7 7 7 7 7 7 7 7 7 7 7 7 7 7 8 8 8 8 8 8 8 8 7 7 7 7 8 8 8 8 8 8 8 8 8 8 8 8 8 8 8 8 7 7 7 6 6 6 6 6 6 6 6 6
7 7 7 6 7 7 7 7 7 7 7 7 7 7 7 7 7 7 7 7 7 7 7 7 7 7 7 7 7 7 7 7 7 7 7 7 7 7 7 7 7 7 7 7 7 7 7 7 7 7 7 7 7 7 7 7 7 7 6 6 5 5 5 6 6 6 6 6 6
7 6 6 7 7 7 7 7 7 6 6 6 7 7 7 7 6 6 7 7 7 7 6 6 7 7 7 7 7 7 7 7 7 7 7 7 7 7 6 6 6 6 7 7 7 7 7 7 7 7 7 7 7 7 7 7 6 6 5 5 4 4 5 5 5 6 6 6 6
6 6 6 6 7 7 7 7 6 6 6 6 6 7 7 6 6 6 6 7 6 6 6 6 6 6 6 6 6 6 6 6 6 6 6 6 6 6 6 6 6 6 6 6 6 6 6 6 6 6 6 6 6 6 6 6 6 5 5 4 4 4 4 5 5 5 5 5 5
6 6 6 6 6 6 6 6 6 6 6 6 6 7 7 6 6 6 6 6 6 6 6 6 6 6 6 6 6 6 6 6 6 6 6 6 6 6 6 6 6 6 6 6 6 6 6 6 6 6 6 6 6 5 5 5 5 4 4 4 4 4 4 4 4 4 4 4 4
6 6 6 6 6 6 6 6 6 6 6 6 6 6 6 6 6 6 6 6 6 6 6 6 6 6 6 6 5 5 5 6 6 6 6 5 6 6 6 6 6 6 6 6 6 6 6 6 6 6 5 5 5 5 4 4 4 4 4 3 3 3 3 3 3 3 3 3 3
6 6 6 6 6 6 6 6 6 6 6 6 6 6 6 6 6 5 5 5 5 5 6 6 6 6 6 5 5 5 5 5 5 5 5 5 5 5 5 5 5 5 5 5 5 6 6 6 6 6 5 5 4 4 4 3 3 3 3 3 3 3 3 2 2 2 2 2 3
6 6 6 6 5 5 5 5 5 5 5 5 5 5 6 5 5 5 5 5 5 5 5 5 5 5 5 5 5 5 5 5 5 5 5 5 5 5 5 5 5 5 5 5 5 5 5 5 5 5 5 5 4 4 3 3 3 2 2 2 2 2 2 2 2 2 1 2 2
5 5 5 5 5 5 5 4 5 5 5 5 5 5 5 5 5 4 4 5 5 5 4 4 5 5 5 5 4 4 4 4 4 4 4 4 4 4 4 4 4 4 4 4 4 4 4 4 4 5 4 4 4 3 3 2 2 2 2 1 1 1 1 1 1 1 1 1 1
5 5 5 5 5 5 4 4 4 4 4 5 5 5 5 5 4 4 4 4 4 4 4 4 4 4 4 4 4 4 4 3 3 3 3 3 3 3 3 3 3 3 3 3 3 4 4 4 4 4 4 4 4 3 3 2 2 1 1 1 1 1 1 1 1 1 1 1 1
5 5 5 5 4 4 4 4 4 4 4 5 5 5 5 4 4 4 4 4 4 4 4 4 4 4 4 3 3 3 3 3 3 3 3 3 3 3 3 3 3 2 3 3 3 3 3 3 3 3 3 3 3 3 2 2 1 1 1 1 1 1 1 1 1 1 1 1 1
5 5 5 4 4 4 4 4 4 4 4 4 4 4 4 4 4 4 4 4 4 3 3 3 3 3 3 3 3 3 3 3 3 3 3 3 3 2 2 2 2 2 2 2 2 2 2 2 2 2 2 3 3 2 2 1 1 1 1 1 0 0 0 0 0 1 1 1 1
5 5 4 4 4 4 4 4 4 4 4 4 4 4 4 4 4 4 3 3 3 3 3 3 3 3 3 3 3 3 3 3 3 3 2 2 2 2 2 2 2 2 2 2 2 2 2 1 1 1 2 2 2 2 1 1 1 1 0 0 0 0 0 0 1 1 1 1 2
5 4 4 4 4 4 4 4 4 4 4 4 4 4 3 3 3 3 3 3 3 3 3 3 3 3 3 3 3 3 3 2 2 2 2 2 2 2 2 2 2 2 1 1 1 1 1 1 1 1 1 2 2 1 1 1 1 1 1 0 1 1 1 1 1 1 1 1 2
4 4 4 4 3 4 4 4 4 4 4 3 3 3 3 3 3 3 3 3 3 3 3 3 3 3 3 3 2 2 2 2 2 2 2 2 2 2 2 2 2 1 1 1 1 1 1 1 0 1 1 2 2 1 1 1 1 1 0 0 0 0 0 0 1 1 1 1 1
4 4 3 3 3 3 3 3 3 3 3 3 3 3 3 3 3 3 3 3 3 3 3 2 2 2 2 2 2 2 2 2 2 2 2 2 2 2 2 2 1 1 1 1 1 1 0 0 1 1 2 2 2 1 1 1 1 0 0 0 0 0 1 1 1 1 1 1 1
4 4 3 3 3 3 3 3 3 3 3 3 3 3 3 3 2 2 2 2 2 2 2 2 2 2 2 2 2 2 2 2 2 2 1 1 2 2 2 1 1 1 1 1 1 0 0 1 1 1 2 2 1 1 1 0 0 0 0 0 0 0 0 1 1 1 1 0 0
4 4 3 3 3 3 3 3 3 3 3 3 2 2 2 2 2 2 2 2 2 2 2 2 2 2 2 2 2 2 2 2 1 1 1 1 1 2 1 1 1 1 1 1 0 0 1 1 1 2 2 1 1 1 0 0 0 -0 -0 -0 -0 0 0 0 0 0 0 0 0
4 4 3 3 3 3 3 3 3 3 3 3 2 2 2 2 2 2 2 2 2 2 2 2 2 2 1 1 1 1 1 1 1 1 1 1 1 1 1 1 1 1 1 0 0 1 1 1 1 1 1 1 1 0 0 0 0 -0 -0 -0 -0 -0 -0 -0 -0 -0 -0 0 0
4 3 3 3 3 3 3 3 3 3 3 2 2 2 2 2 2 2 2 2 2 2 2 1 1 1 1 1 1 1 1 1 1 1 1 1 1 1 1 1 1 0 0 0 0 1 1 1 1 1 1 1 1 0 0 0 -0 -0 -0 -0 -0 -0 -0 -0 -0 -0 -0 -0 0
3 3 3 3 3 3 3 3 3 3 3 2 2 2 2 2 2 2 2 2 2 1 1 1 1 1 1 1 1 1 1 1 1 1 1 1 1 1 1 1 0 0 -0 -0 0 0 1 1 1 1 1 1 1 0 0 -0 -0 -0 -0 -0 -0 -1 -1 -1 -1 -1 -1 -0 -0
3 3 3 3 3 3 3 3 3 3 3 2 2 2 2 2 2 2 1 1 1 1 1 1 1 1 1 1 1 1 1 1 0 0 0 1 1 0 0 0 0 -0 -0 -0 -0 0 0 0 1 1 1 1 0 0 0 -0 -0 -0 -0 -0 -0 -1 -1 -1 -1 -1 -1 -1 -1
Height
808 808 808 809 809 810 810 811 811 811 811 811 811 812 812 812 812 812 812 812 812 812 812 812 813 813 813 813 813 813 813 813 813 813 813 813 813 813 813 813 813 813 813 814 814 814 814 814 815 815 814 814 815 815 815 815 815 816 816 816 816 816 817 817 817 817 817 817 817
808 808 808 808 809 809 809 810 810 810 810 810 810 810 811 811 811 811 811 811 811 811 811 811 811 811 811 811 811 811 811 811 811 811 811 811 811 811 812 812 812 812 812 812 812 812 812 812 813 813 813 813 813 813 813 813 813 814 814 814 814 815 815 815 815 815 815 815 816
807 807 808 808 808 808 809 809 809 809 809 809 809 809 810 810 810 810 810 810 810 810 810 810 810 810 810 810 810 810 810 810 810 810 810 810 810 810 810 810 810 810 810 810 810 810 810 810 811 811 810 810 811 811 811 811 812 812 813 813 813 813 813 813 813 813 813 814 814
807 807 807 807 808 808 808 808 808 808 808 808 808 808 808 808 808 808 808 808 808 808 808 808 808 808 808 808 808 808 808 808 808 808 808 808 808 808 808 808 808 808 808 808 808 808 808 808 808 808 808 809 809 809 809 810 810 810 810 810 811 811 811 811 811 812 812 812 813
806 806 807 807 807 807 807 807 808 808 808 807 807 808 808 807 807 807 807 808 808 807 807 807 807 807 807 807 807 807 807 807 807 807 807 807 807 807 807 806 806 806 806 806 806 806 806 807 807 807 807 807 807 807 807 808 808 808 808 808 809 809 809 809 810 810 810 810 811
806 806 806 806 806 806 806 806 807 807 806 806 806 806 806 806 806 806 806 806 806 806 806 806 806 806 806 806 806 806 806 806 806 805 805 805 805 805 805 805 805 804 804 804 804 804 804 805 804 804 805 805 806 806 806 806 807 807 807 807 807 807 807 808 808 808 808 809 809
805 806 806 806 806 805 805 805 805 805 805 805 805 805 805 805 805 805 805 805 805 805 805 805 805 805 804 804 804 804 804 804 804 804 804 803 803 803 803 803 803 803 803 803 803 803 803 803 803 803 803 803 803 803 804 805 805 805 805 805 805 805 806 806 806 807 807 807 808
805 805 805 805 805 805 805 804 804 804 804 804 804 804 804 804 804 804 804 803 803 803 803 803 803 803 803 803 803 803 803 803 803 802 802 802 802 802 802 801 801 801 801 801 801 801 801 801 801 801 801 801 802 802 802 803 803 803 803 803 803 803 804 804 805 805 806 806 807
804 804 804 804 804 804 804 803 803 803 803 803 803 803 803 803 803 803 803 803 802 802 802 802 802 802 802 802 802 801 801 801 801 801 800 800 800 800 800 800 799 799 799 799 799 799 799 799 799 799 799 800 800 801 801 801 802 802 802 802 802 802 803 803 803 804 804 805 806
804 804 803 803 803 803 803 803 803 802 802 802 802 802 802 802 802 801 801 801 801 801 801 801 801 801 801 801 800 800 800 799 799 799 799 799 798 798 798 798 798 798 798 797 797 797 798 798 798 798 798 798 799 799 799 800 800 800 800 800 800 801 801 802 802 803 803 804 805
803 803 803 803 802 802 802 802 801 801 801 801 801 801 801 801 800 800 800 800 800 801 800 800 800 800 800 799 799 799 798 798 798 798 798 797 797 797 797 796 796 796 796 796 796 796 796 796 796 797 797 797 798 798 798 798 798 799 799 799 799 800 800 801 801 802 803 803 804
803 802 802 802 801 801 801 801 800 800 800 800 800 800 800 800 799 799 799 799 799 799 799 799 799 799 799 798 798 798 797 797 797 797 797 796 796 796 795 795 795 795 795 795 795 795 795 795 796 796 796 796 797 797 797 797 797 798 798 798 798 799 799 800 800 801 802 802 803
802 801 801 800 800 800 800 800 799 799 799 799 799 799 799 799 799 798 798 798 798 798 798 798 798 798 798 797 797 797 796 796 796 796 796 795 795 795 794 794 794 794 794 794 794 794 794 795 795 795 795 795 795 796 796 796 796 797 797 797 798 798 798 799 800 800 801 802 803
800 800 800 799 799 799 799 799 799 799 798 799 798 798 798 798 798 798 798 798 798 798 798 798 797 797 797 797 796 796 795 795 795 795 795 794 794 794 794 794 794 794 793 793 793 793 794 794 794 794 794 794 794 795 795 795 796 796 796 797 797 798 798 798 799 800 800 801 802
799 799 798 798 798 798 798 798 798 798 798 798 798 798 798 798 798 797 797 797 797 797 797 797 797 796 796 796 795 795 795 795 794 794 794 794 794 794 794 793 793 793 793 793 793 793 793 793 793 793 793 793 794 794 794 795 795 795 796 796 797 797 798 798 799 800 800 801 801
798 798 798 798 798 798 798 798 798 798 798 798 798 798 798 797 797 797 797 797 796 796 796 796 796 796 795 795 795 795 794 794 794 794 794 794 793 793 793 793 793 793 793 793 792 792 792 792 792 792 793 793 793 793 794 794 795 795 796 796 797 797 798 798 799 799 800 801 801
798 798 798 798 798 798 798 798 798 797 797 797 797 797 797 797 797 796 796 796 796 796 796 796 796 795 795 795 795 794 794 794 794 794 794 793 793 793 793 793 793 792 792 792 792 792 792 792 792 792 792 793 793 793 793 794 794 795 795 796 796 797 797 798 798 799 800 801 802
798 797 797 797 798 798 798 797 797 797 797 797 797 797 797 797 796 796 796 796 796 796 796 795 795 795 795 795 794 794 794 794 794 793 793 793 793 793 793 792 792 792 792 792 792 792 792 792 792 792 792 792 793 793 793 794 794 795 795 796 797 797 798 798 799 799 800 801 802
797 797 797 797 797 797 797 797 797 797 797 797 797 796 796 796 796 796 796 796 796 796 795 795 795 795 795 794 794 794 794 794 793 793 793 793 793 792 792 792 792 792 792 792 792 792 792 792 792 792 792 792 793 793 793 794 794 795 796 796 797 797 798 798 799 799 800 801 801
797 797 797 797 797 797 796 796 797 797 797 796 796 796 796 796 796 796 796 796 796 796 795 795 795 795 795 794 794 794 794 793 793 793 793 793 792 792 792 792 792 792 792 792 792 792 792 792 792 792 792 792 793 793 793 794 795 795 796 797 797 798 798 798 799 799 800 801 801
796 796 796 796 796 796 796 796 796 796 796 796 796 796 796 796 796 796 796 796 796 796 795 795 795 795 795 794 794 794 793 793 793 793 793 792 792 792 792 792 792 792 792 792 792 792 792 792 792 792 793 793 793 793 794 794 794 795 796 797 798 798 798 798 799 799 800 801 802
796 796 796 796 796 796 796 796 796 796 796 796 796 796 796 796 796 796 796 796 796 796 795 795 795 795 795 794 794 794 793 793 793 793 793 793 792 792 792 792 792 792 792 792 792 792 792 792 793 793 793 793 793 794 794 794 795 795 796 797 798 798 798 799 799 800 800 801 802
795 795 795 795 795 795 796 796 796 796 796 795 795 795 796 796 796 796 796 796 796 796 796 795 795 795 795 794 794 794 794 793 793 793 793 793 793 793 793 793 793 792 792 792 793 793 793 793 793 793 793 793 794 794 795 795 795 796 797 798 798 798 799 799 800 800 801 802 803
794 794 795 795 795 795 795 796 796 795 795 795 795 795 795 795 795 796 796 796 796 796 796 796 795 795 795 795 795 794 794 793 793 793 793 793 793 793 793 793 793 793 793 793 793 793 793 793 793 793 794 794 794 795 795 796 796 797 798 798 798 799 799 800 800 801 802 803 803
794 794 794 795 795 795 795 795 795 795 795 795 795 795 795 795 795 796 796 796 796 796 796 796 796 795 795 795 795 795 794 794 793 793 793 793 793 793 793 793 793 793 793 793 793 793 793 793 794 794 794 794 795 795 795 796 797 797 798 798 799 799 800 801 801 802 803 803 804
794 794 794 794 795 795 795 795 795 795 795 795 795 795 795 795 795 796 796 796 796 796 796 796 796 796 796 795 795 795 795 794 794 794 794 794 794 794 794 794 794 794 794 794 794 794 794 794 794 794 794 795 795 795 796 796 797 798 798 799 800 800 801 801 802 803 804 804 805
793 794 794 794 794 795 795 794 794 794 794 795 795 795 795 795 795 796 796 796 796 796 796 796 796 796 796 796 796 795 795 794 794 794 794 794 794 794 794 794 794 794 794 794 794 794 794 795 795 795 795 795 795 796 796 797 798 798 799 800 800 801 801 802 803 803 804 805 806
793 793 793 794 794 794 794 794 794 794 794 794 794 795 795 795 795 796 796 796 796 796 796 796 796 796 796 796 796 796 795 795 795 795 795 795 795 795 795 795 795 795 794 794 795 795 795 795 795 795 795 795 796 796 797 797 798 799 799 800 801 801 802 803 803 804 804 805 806
793 793 793 793 794 794 794 794 794 794 794 794 794 795 795 795 795 796 796 796 796 796 796 796 796 796 796 796 796 796 796 795 795 795 795 795 795 795 795 795 795 795 795 795 795 795 795 795 795 795 796 796 796 796 797 798 798 799 800 801 801 802 803 803 804 804 805 806 806
793 793 793 793 793 793 794 794 794 794 794 794 794 795 795 795 795 796 796 796 796 796 796 796 796 796 796 796 796 796 796 796 796 796 796 796 796 796 796 796 796 796 795 795 795 795 795 795 796 796 796 796 796 797 798 798 799 799 800 801 802 803 803 803 804 805 806 807 807
792 793 793 793 793 793 793 793 793 794 794 794 795 795 795 795 795 796 796 796 796 796 796 797 796 796 796 796 796 796 796 796 796 796 796 796 796 796 796 796 796 796 796 796 796 796 796 796 796 796 796 796 797 797 798 798 799 800 801 802 802 803 803 804 805 806 807 807 808
792 792 793 793 793 793 793 793 793 794 794 794 794 795 795 795 795 796 796 796 796 796 797 797 797 796 796 796 796 796 796 797 797 797 797 797 797 797 797 797 797 797 796 796 796 796 796 796 796 796 796 797 797 798 798 799 799 800 801 802 802 803 803 804 806 807 807 808 808
792 792 792 793 793 793 793 793 793 794 794 794 794 795 795 795 795 796 796 796 796 797 797 797 797 797 797 797 797 797 797 797 797 797 797 797 797 797 797 797 797 797 797 797 797 797 796 796 796 797 797 797 798 798 798 799 800 800 801 802 803 803 804 805 806 807 808 808 809
791 792 792 792 792 793 793 793 793 794 794 794 794 795 795 795 795 796 796 796 797 797 797 797 797 797 797 797 797 797 797 797 798 798 798 798 798 798 798 798 798 798 798 797 797 797 797 797 797 797 797 797 798 798 799 800 800 801 802 802 803 804 805 805 806 807 807 808 808
791 791 792 792 792 793 793 793 793 794 794 794 794 795 795 795 796 796 796 796 797 797 797 797 797 797 797 797 798 798 798 798 798 798 798 798 798 798 798 798 798 798 798 798 798 798 797 797 797 797 797 798 798 799 800 800 801 802 803 803 804 804 805 805 806 806 807 808 808
791 791 791 792 792 792 793 793 793 793 794 794 794 795 795 795 796 796 796 796 796 797 797 797 797 797 798 798 798 798 798 798 798 798 798 798 798 798 798 799 799 799 798 798 798 798 798 798 798 798 798 799 799 800 801 801 802 803 803 804 804 805 805 806 806 807 807 808 808
790 791 791 791 792 792 792 793 793 793 794 794 794 795 795 796 796 796 796 796 796 797 797 797 797 798 798 798 798 798 798 798 798 798 798 798 799 799 799 799 799 799 799 799 798 798 798 798 798 798 799 799 800 801 801 802 803 803 804 804 805 805 806 806 807 807 808 808 808
790 791 791 791 792 792 792 793 793 793 794 794 794 795 795 795 796 796 796 796 796 797 797 797 798 798 798 798 798 798 798 798 799 799 799 799 799 799 799 800 800 800 799 799 799 799 799 799 799 799 800 800 801 801 802 803 803 804 804 805 805 806 806 807 807 808 808 808 808
790 790 791 791 791 792 792 793 793 793 793 794 794 795 795 795 796 796 796 797 797 797 797 797 798 798 798 798 798 798 799 799 799 799 799 800 800 800 800 800 800 800 800 800 799 799 799 800 800 800 801 801 802 802 803 803 804 804 805 805 806 806 807 807 808 808 808 808 808
790 790 790 791 791 791 792 792 793 793 793 794 794 795 795 795 795 796 796 797 797 797 797 797 798 798 798 798 798 798 799 799 799 799 800 800 800 800 800 800 800 800 800 800 800 800 800 801 801 801 801 802 802 803 803 803 804 805 805 806 806 807 807 808 808 808 809 809 809
789 790 790 790 791 791 792 792 793 793 793 794 794 794 795 795 795 796 796 797 797 797 797 798 798 798 798 798 798 798 799 799 799 799 799 800 800 800 800 801 801 801 801 801 801 801 801 801 802 802 802 802 803 803 803 804 805 805 806 806 807 807 808 808 808 809 809 809 810
Wind_Speed
8 8 9 9 10 10 11 11 12 12 13 13 14 14 15 15 15 16 16 17 17 17 17 18 18 18 19 19 19 19 19 20 20 21 21 22 23 23 24 24 25 25 25 25 25 23 21 20 19 19 19 19 19 19 19 19 19 20 21 21 22 22 23 24 25 24 23 23 22
8 9 9 9 10 10 11 11 12 12 13 13 13 14 14 14 15 15 16 16 16 16 17 17 17 17 17 17 18 18 18 19 19 20 20 21 21 22 23 23 24 24 25 25 25 24 22 21 20 19 19 19 19 19 21 22 21 21 21 22 22 23 23 23 25 25 24 22 22
9 10 10 10 10 11 11 12 12 12 13 13 14 14 14 15 15 15 15 15 16 16 16 16 16 16 16 16 17 17 17 17 18 18 19 19 19 20 21 21 22 23 24 24 25 24 23 22 20 19 20 21 21 21 21 22 22 22 22 23 23 23 24 25 25 25 24 22 21
10 10 10 11 11 12 12 12 13 13 14 14 15 15 15 15 16 16 16 16 16 16 16 16 16 16 16 16 16 17 17 17 17 18 18 18 19 19 19 20 21 22 22 23 24 24 24 23 21 20 20 20 21 21 21 21 21 22 23 23 23 23 24 25 25 24 23 21 20
10 10 11 12 12 12 13 13 14 14 15 16 16 16 16 17 17 17 17 17 17 18 18 17 17 17 17 17 17 18 18 18 18 19 19 19 19 20 20 20 20 21 21 22 23 23 23 22 21 20 20 20 20 21 20 20 20 21 22 22 23 24 25 25 25 24 23 21 20
9 10 11 12 13 13 14 14 15 15 16 17 17 17 17 18 18 19 19 19 19 19 19 19 18 18 18 18 18 19 19 19 19 20 20 21 21 21 21 21 21 21 21 22 22 22 22 21 20 20 20 21 20 20 19 19 19 20 21 22 24 25 26 26 26 25 24 22 21
9 10 11 12 13 13 14 14 15 16 16 17 17 17 18 18 19 19 19 20 20 20 20 19 19 19 19 19 19 19 19 20 20 21 21 22 22 22 22 22 22 22 22 21 21 21 20 19 19 19 20 21 21 20 19 19 19 20 21 23 25 26 26 26 26 25 24 23 21
9 10 11 11 12 13 13 14 14 15 15 16 16 17 17 18 18 19 19 19 19 19 19 19 19 19 18 18 19 19 19 20 20 21 22 22 22 22 22 22 22 22 21 20 20 20 19 18 18 19 19 20 19 18 18 18 20 21 23 24 25 26 26 26 26 25 24 22 20
8 9 10 11 12 12 13 13 14 14 14 15 16 16 17 17 17 17 18 18 18 18 18 18 18 17 17 16 17 17 18 18 19 20 21 21 21 21 21 22 21 21 20 19 19 18 18 18 18 19 20 20 18 18 18 19 21 22 24 24 25 25 25 25 24 23 21 20 19
9 9 10 10 11 11 12 12 13 13 14 15 15 16 16 16 16 16 16 16 16 16 16 16 15 14 14 14 15 15 16 17 17 18 18 18 19 19 20 20 19 19 18 18 17 17 17 18 18 19 19 18 18 18 19 20 22 23 24 24 24 24 24 23 22 20 19 18 18
9 9 10 10 10 11 11 11 12 13 13 13 14 14 14 14 14 14 14 14 14 13 13 13 13 12 12 13 14 14 15 15 15 16 16 17 17 17 17 17 16 16 15 14 14 13 14 15 16 17 17 17 18 19 20 21 22 23 23 23 23 23 22 21 20 18 17 17 17
9 9 9 9 10 10 10 10 11 11 11 12 12 11 11 11 12 12 12 12 11 11 12 12 12 12 12 13 13 13 12 12 12 11 12 12 12 12 12 12 12 11 11 10 9 9 10 13 15 16 17 17 18 19 20 20 21 22 22 22 22 21 21 20 19 18 17 16 16
9 9 9 9 9 9 9 9 9 9 9 9 9 9 9 10 10 11 10 10 11 11 12 12 12 12 12 12 11 9 8 8 7 8 8 9 9 8 8 8 8 8 8 8 8 8 10 12 14 16 17 18 18 18 19 20 20 21 21 21 21 20 19 18 18 17 16 15 15
8 8 8 8 8 8 7 7 7 7 7 7 7 8 8 9 9 9 10 10 11 11 12 12 12 11 10 9 8 7 7 7 7 8 8 8 8 8 8 8 8 8 8 8 9 10 12 13 15 16 17 18 18 18 18 19 19 20 20 20 19 18 18 17 16 16 16 16 16
7 7 7 7 6 6 6 5 6 6 6 6 6 7 7 8 8 8 8 9 9 10 10 10 10 9 9 8 8 8 8 8 8 8 9 9 9 9 10 10 10 10 10 10 11 12 13 14 15 16 16 17 17 18 18 18 18 18 18 18 18 17 16 16 15 15 16 16 16
5 5 6 5 5 4 4 4 5 5 5 6 6 6 7 7 7 7 6 6 6 7 7 7 7 7 7 7 7 8 8 9 9 9 9 10 10 10 10 11 11 11 11 11 12 13 14 14 15 15 16 16 16 17 17 17 17 17 17 17 16 16 15 15 15 15 16 16 16
4 5 5 5 4 4 4 4 5 6 6 6 6 6 6 5 5 4 4 4 5 5 6 6 6 6 6 7 7 8 8 9 9 9 9 9 10 10 10 10 10 10 11 11 11 12 13 14 14 15 15 15 16 16 16 17 17 16 16 15 15 14 14 14 15 15 15 15 16
4 5 5 4 4 4 5 5 6 7 6 6 6 6 6 5 4 4 4 4 4 5 6 6 6 6 6 7 7 8 8 8 8 8 9 9 9 9 9 9 10 10 10 10 10 11 12 13 13 14 14 15 15 15 16 16 16 15 15 14 14 13 14 14 14 15 15 15 15
5 5 5 5 5 5 6 7 7 7 6 6 6 6 6 5 4 4 4 4 5 5 6 6 6 6 7 7 8 8 8 8 8 8 8 9 9 9 9 9 9 10 9 10 10 11 11 12 12 13 14 14 14 15 15 15 15 14 14 13 13 14 14 14 14 14 14 13 13
6 6 5 5 6 7 7 7 6 6 6 6 7 7 6 5 5 4 4 5 5 5 5 5 6 6 6 7 7 7 7 7 7 7 7 8 8 8 8 8 9 9 9 9 10 10 11 11 12 12 13 13 14 14 15 15 14 14 14 14 14 14 14 14 14 14 13 12 11
6 6 6 7 8 7 7 6 5 5 6 7 7 6 6 5 5 5 5 5 4 4 4 4 5 5 6 6 6 6 6 6 6 6 7 7 7 7 7 8 8 9 9 9 9 10 10 11 11 12 12 13 14 14 15 15 14 14 14 14 14 14 14 13 13 12 11 10 10
8 8 8 8 8 7 6 5 5 5 5 5 5 5 5 5 5 5 4 4 4 3 3 3 4 4 4 5 5 5 5 5 5 6 6 6 6 7 7 7 8 9 9 9 10 10 11 11 12 12 13 13 14 14 14 14 14 14 14 14 13 13 12 12 11 10 10 10 10
10 9 9 9 8 7 6 5 5 5 5 4 4 4 5 5 5 5 5 4 4 4 3 3 3 4 4 4 5 5 5 5 5 6 6 6 7 7 7 8 9 9 10 10 11 11 12 12 13 13 13 13 13 13 13 13 13 13 13 12 12 11 11 11 11 10 11 11 11
10 10 9 9 8 7 6 5 5 5 5 5 5 5 5 5 6 6 5 5 5 4 4 3 3 4 4 5 6 6 6 7 7 7 6 7 7 7 8 8 9 10 10 11 12 12 12 13 13 13 13 13 13 13 13 12 12 12 12 12 12 12 13 13 13 13 13 13 12
10 9 9 8 7 7 6 6 6 6 6 6 6 6 6 6 6 6 6 6 6 5 5 4 4 4 5 6 7 8 8 8 8 8 8 7 7 7 8 8 9 9 10 10 11 11 11 11 11 12 12 12 13 13 12 12 12 12 12 13 13 14 15 15 15 15 15 15 15
9 8 8 8 7 7 7 7 7 7 7 7 7 7 7 7 7 7 7 7 7 6 5 5 5 6 6 7 8 8 8 8 7 7 7 7 7 7 8 8 9 9 9 9 9 9 9 9 9 10 11 12 12 12 12 12 12 12 13 13 14 15 16 16 15 15 14 15 15
8 8 8 7 7 7 7 7 7 7 7 8 8 8 8 8 8 8 8 8 7 7 6 6 7 7 7 7 8 8 8 7 7 6 6 6 7 7 7 7 8 8 7 7 7 7 7 8 8 9 10 11 12 13 13 13 13 13 14 14 14 15 16 16 15 14 13 13 13
9 8 8 7 7 7 7 7 7 8 8 8 9 9 9 9 9 9 9 8 8 8 8 8 8 8 8 8 7 7 7 7 7 6 6 6 6 6 7 7 7 6 6 6 6 6 6 7 8 9 10 12 13 13 14 14 14 14 14 14 14 14 14 14 14 14 14 14 14
9 9 8 8 8 8 8 8 8 8 8 8 9 9 9 8 8 8 8 8 8 8 8 9 9 9 8 8 7 7 6 6 6 6 6 6 6 6 7 7 7 6 6 5 5 5 6 7 8 9 11 12 13 14 14 15 14 14 14 13 13 13 13 13 13 13 13 14 14
9 9 8 8 8 8 8 8 8 8 8 8 8 8 8 8 8 8 8 8 8 8 8 8 8 8 8 8 7 7 6 6 6 6 6 7 7 7 7 7 7 7 6 6 6 6 6 7 8 10 11 13 14 14 15 15 14 14 13 13 13 12 13 13 13 13 13 13 13
9 9 8 9 9 9 9 9 8 8 7 7 7 7 7 7 8 8 8 8 8 8 8 8 8 8 8 8 7 7 7 7 7 7 7 7 7 7 7 7 7 7 7 6 6 6 7 7 9 11 12 13 14 14 15 14 14 13 13 12 12 12 13 13 13 12 12 11 11
9 9 9 9 9 9 9 9 8 8 7 7 7 7 7 7 8 8 8 8 8 8 8 8 8 8 7 7 7 7 7 7 7 7 7 7 7 7 8 8 8 8 8 7 7 7 7 8 10 11 13 14 14 14 14 15 14 14 14 14 14 14 14 14 13 11 10 10 9
9 9 9 9 10 10 9 9 8 8 7 7 7 7 7 7 8 7 7 7 8 8 8 8 8 7 7 7 7 7 7 7 7 7 7 8 8 8 8 8 8 8 8 8 8 8 8 9 10 12 13 14 14 14 15 15 15 15 15 15 15 15 15 14 13 11 10 9 8
9 9 9 10 10 10 9 9 9 8 8 7 7 7 7 8 8 8 8 8 8 8 8 8 8 7 7 7 7 8 8 8 8 7 7 7 8 8 7 7 8 8 8 9 9 8 9 9 11 12 14 15 15 15 15 15 15 15 15 15 15 15 15 14 13 12 11 9 7
10 10 10 10 10 10 10 10 9 9 8 8 8 8 8 8 8 9 9 9 9 9 8 8 8 7 7 7 7 8 8 8 8 8 7 7 7 7 7 7 8 8 9 9 9 9 9 10 11 13 14 15 15 15 15 15 14 14 14 14 14 14 14 14 14 13 12 10 9
10 10 10 10 10 10 10 10 10 10 9 9 9 9 9 9 8 9 10 10 10 10 9 8 8 7 7 7 8 8 8 8 8 7 7 7 7 7 7 8 8 9 9 9 9 9 9 10 11 13 14 15 15 15 15 15 14 14 14 13 13 13 13 13 12 11 11 10 9
11 11 11 11 11 11 11 11 11 10 10 9 9 9 9 9 9 9 10 11 11 10 10 9 8 8 8 8 8 8 8 8 7 6 6 6 6 7 8 8 9 9 9 8 8 8 9 10 12 13 15 16 16 15 15 14 14 13 13 12 12 12 12 11 10 9 9 9 9
11 11 11 11 12 12 12 11 11 11 10 10 9 10 10 9 9 9 10 11 11 10 10 9 8 8 8 9 9 8 8 7 7 6 6 6 6 7 8 8 8 8 8 7 7 8 9 10 13 14 15 15 15 14 14 13 13 12 11 11 11 11 10 10 9 8 8 8 9
11 11 11 12 12 12 12 12 11 11 10 10 10 10 10 10 10 10 10 10 10 10 9 9 9 9 9 9 9 9 8 7 7 7 7 7 7 7 8 8 8 8 7 7 7 7 9 11 13 14 14 15 14 14 13 12 11 11 10 10 9 9 9 8 8 7 7 7 8
10 11 12 12 12 13 13 12 12 11 10 10 10 11 11 11 10 11 11 11 10 9 9 9 9 10 10 10 10 9 8 8 8 8 8 7 8 8 8 8 8 8 7 7 7 8 9 11 12 12 13 13 13 13 12 11 10 9 9 8 8 8 8 8 7 7 7 7 7
10 11 12 12 12 13 13 12 12 11 11 10 11 11 11 11 11 11 11 11 10 9 9 9 10 10 11 11 10 9 9 8 8 8 9 9 9 9 9 8 8 8 8 8 8 8 9 10 10 10 11 11 12 12 11 10 9 8 8 8 7 7 7 7 7 7 7 7 6
Wind_Direction
212 215 218 220 223 225 229 232 235 237 239 240 242 244 245 246 247 248 250 252 252 254 256 257 258 259 261 262 263 263 263 263 263 263 263 263 263 262 262 262 261 261 261 260 259 257 254 251 249 247 246 245 246 245 245 243 244 244 245 245 245 245 247 247 245 242 239 236 235
219 223 226 229 232 234 237 240 242 243 244 245 245 247 248 249 250 251 253 254 255 256 257 259 260 262 263 264 265 265 265 265 265 265 265 265 265 264 264 264 264 263 263 262 261 259 256 254 250 248 246 246 246 246 246 245 245 245 246 247 246 246 246 245 244 243 239 235 233
231 235 238 240 243 245 247 248 249 250 250 250 250 251 252 253 253 254 255 256 257 258 259 261 262 263 264 265 265 266 266 266 266 266 266 266 266 266 266 265 265 264 263 263 261 260 258 255 252 249 248 249 249 249 248 247 247 246 245 246 246 246 246 245 244 242 238 233 230
239 242 245 247 248 250 251 251 253 254 254 255 255 255 256 257 258 258 259 260 261 261 262 262 263 264 265 266 266 266 267 267 267 267 267 267 267 267 267 266 266 266 265 264 262 261 259 257 254 251 249 250 249 249 248 248 247 245 244 244 244 244 245 244 242 239 233 228 224
242 244 246 247 248 249 251 252 254 255 256 257 258 259 260 260 261 262 262 263 263 263 263 263 264 265 265 265 265 265 266 266 267 267 268 268 268 268 268 268 267 267 266 264 263 262 260 258 255 251 250 250 249 247 246 247 246 244 243 243 243 242 242 241 238 233 228 223 221
244 246 247 248 249 250 251 253 254 255 257 258 259 260 261 262 262 263 263 263 263 264 264 264 263 263 263 263 263 264 264 265 265 266 266 267 267 267 268 268 268 267 266 265 264 262 260 257 254 251 249 247 247 246 245 246 245 244 243 241 240 240 238 236 234 230 226 223 222
247 248 249 249 250 250 251 252 253 255 256 258 259 260 260 261 262 262 262 262 263 263 263 262 261 260 260 260 261 261 262 262 263 263 264 264 265 265 266 266 266 266 265 264 263 261 258 254 251 249 247 247 248 248 247 245 243 241 239 237 237 237 235 232 231 229 226 224 224
255 253 252 251 251 251 251 252 253 254 256 256 257 257 258 259 260 260 261 261 261 261 261 260 259 258 258 259 259 260 260 261 262 262 263 264 264 264 264 264 264 264 264 263 262 259 256 251 247 244 243 245 247 245 242 242 239 237 235 234 235 234 232 230 228 227 225 224 224
265 261 258 255 254 252 252 252 252 253 254 255 255 255 256 257 258 258 259 260 260 260 260 259 259 258 258 259 259 260 261 262 263 264 265 265 265 265 264 264 265 265 264 263 261 257 253 247 244 242 241 241 242 241 239 237 235 234 233 233 232 231 230 228 225 224 223 222 221
268 265 262 259 257 255 254 254 253 253 254 254 255 255 255 255 256 256 257 257 258 260 260 260 260 260 260 260 261 262 263 264 265 265 266 266 266 265 265 265 265 265 264 263 260 256 250 244 242 240 239 237 236 236 235 235 233 232 231 231 230 228 225 223 220 217 216 215 215
264 263 262 261 260 258 258 258 257 256 255 255 255 256 255 255 255 254 254 255 257 259 259 258 258 258 259 260 262 264 264 265 266 266 266 266 267 267 266 266 266 265 265 264 261 255 247 241 237 235 234 233 232 232 233 233 231 229 228 228 227 223 218 215 213 210 207 207 209
260 260 261 260 260 260 260 260 260 259 258 257 256 256 255 254 253 253 254 255 256 256 256 256 256 257 259 261 263 264 264 265 266 268 270 271 272 273 273 272 272 271 269 268 261 251 242 236 233 232 232 231 231 230 230 230 228 226 224 223 220 215 211 208 207 205 205 206 209
259 260 261 260 259 258 257 257 258 258 257 256 255 253 253 254 254 256 257 257 256 257 258 258 258 260 263 265 265 264 262 263 267 271 274 275 278 279 278 277 275 273 269 265 254 243 235 233 231 231 231 230 229 228 227 225 223 221 219 216 212 208 205 205 204 205 207 210 212
262 262 263 262 259 255 253 254 254 254 253 252 252 254 258 263 264 265 265 264 262 262 262 262 263 264 265 265 263 261 259 260 263 267 270 273 274 272 269 266 264 261 258 254 246 237 231 229 228 228 228 227 225 223 221 218 216 214 212 208 204 202 202 202 204 206 209 210 212
264 262 260 259 256 253 252 252 252 251 250 250 255 263 272 277 278 276 274 272 271 269 268 268 268 266 262 260 257 256 255 257 260 263 265 267 268 266 262 258 255 252 249 246 242 236 230 226 225 225 224 223 220 216 213 210 207 205 203 202 200 199 199 199 201 202 204 206 206
256 256 256 253 252 251 252 251 253 254 254 256 264 275 283 288 286 283 278 275 273 271 270 270 269 264 258 255 253 254 256 260 262 262 263 264 265 264 261 257 252 249 245 241 237 233 229 225 222 220 219 216 212 209 205 202 199 197 196 196 196 196 196 196 196 194 195 197 195
244 248 249 246 247 247 244 245 254 259 262 265 273 281 287 290 288 282 273 266 265 266 267 266 262 258 256 255 254 257 261 265 265 264 263 262 262 261 259 255 250 245 240 235 230 226 222 220 217 215 212 209 206 203 199 196 193 190 189 190 190 191 191 191 189 187 185 185 184
229 237 240 234 232 233 238 247 257 262 265 269 275 283 288 289 282 273 265 259 259 258 258 259 256 254 253 254 256 260 264 267 267 265 263 260 259 257 255 251 245 238 232 226 222 218 215 211 209 207 206 204 201 198 194 191 187 184 183 182 182 183 183 183 183 181 179 178 178
224 233 234 222 220 228 242 256 263 263 262 264 271 276 278 274 265 258 257 257 254 253 253 253 253 254 254 253 255 258 263 265 265 263 260 257 255 251 247 242 237 230 222 218 215 212 209 205 202 200 198 196 193 190 187 184 180 178 176 175 174 175 175 176 177 179 179 179 179
228 231 227 219 224 235 249 261 261 256 251 251 255 259 261 258 250 241 241 245 244 244 246 248 250 252 253 253 253 255 257 260 259 256 252 249 245 240 234 229 224 218 213 209 206 204 201 198 194 192 189 187 183 180 178 176 173 171 170 169 168 168 169 172 175 178 180 182 181
230 228 225 226 232 240 248 252 249 244 241 242 245 248 250 247 236 228 226 231 231 233 237 242 245 247 249 250 249 249 249 248 244 238 235 234 229 223 217 212 207 203 199 196 194 192 189 185 182 180 179 177 174 172 170 168 166 165 165 164 162 163 166 169 172 174 175 174 171
234 233 231 233 236 238 238 236 238 241 243 241 241 244 246 240 228 218 213 211 211 214 220 229 238 241 240 239 237 235 233 229 220 214 212 211 208 204 198 193 191 188 184 181 179 177 175 172 170 170 169 167 166 165 164 163 162 162 161 160 159 159 160 163 163 162 160 157 155
238 237 235 235 234 232 228 225 233 246 252 246 239 238 240 235 223 210 199 193 192 193 199 210 221 223 222 220 215 210 203 196 190 188 188 189 189 186 182 179 179 176 171 169 169 168 166 164 163 163 163 162 160 159 159 159 159 158 156 154 152 151 149 147 145 144 143 143 142
239 238 235 232 229 225 222 222 233 247 252 245 231 228 230 229 216 202 190 185 182 183 187 195 201 202 198 191 186 180 174 168 165 165 167 170 172 172 171 172 172 170 168 166 165 165 165 164 161 161 161 160 158 157 156 156 156 155 152 148 144 140 135 133 132 132 132 131 131
236 234 229 225 221 220 220 224 232 240 241 234 222 217 218 218 207 194 183 179 179 180 182 185 188 189 184 177 170 165 161 158 157 157 158 159 161 164 166 169 170 169 168 167 167 168 171 172 170 168 165 163 160 158 156 155 154 152 148 143 137 132 128 126 126 125 125 125 125
228 224 220 219 218 219 220 223 226 230 230 223 213 207 207 205 197 187 179 176 177 178 178 180 180 180 178 172 166 162 158 155 155 156 157 158 160 163 168 170 172 172 172 172 174 177 182 185 186 182 176 170 164 158 153 151 150 147 143 138 135 131 128 125 124 124 124 122 121
217 213 214 216 215 215 216 217 219 221 219 214 206 201 198 197 189 182 178 176 175 174 175 176 176 176 175 171 166 160 155 152 151 151 155 159 162 165 168 172 172 172 173 177 181 186 191 194 195 191 183 174 165 157 151 146 145 143 140 137 136 135 132 130 128 128 128 127 126
209 210 212 213 209 208 210 211 210 209 209 207 202 199 196 192 185 180 178 177 176 175 175 174 174 175 174 170 164 157 150 145 144 146 152 159 163 164 165 165 162 161 165 172 179 185 190 193 193 189 182 173 164 156 150 146 144 142 140 139 139 139 138 136 136 136 136 137 137
210 211 212 211 207 206 206 203 201 201 202 202 201 199 197 192 187 182 180 179 179 179 177 174 172 171 169 162 157 152 146 142 141 144 148 151 153 154 154 152 147 147 153 165 173 180 185 186 184 181 176 170 161 155 150 147 145 144 143 142 143 143 143 142 142 142 142 141 141
212 213 212 209 207 204 202 199 200 201 200 199 198 197 197 195 192 188 184 181 181 181 179 174 168 162 158 154 151 146 142 138 137 136 137 139 139 139 139 139 139 141 148 158 166 173 177 178 176 173 170 165 159 153 150 148 147 145 144 144 145 145 145 144 143 142 141 141 140
210 211 209 206 203 200 200 200 200 198 194 192 191 193 195 196 195 191 188 185 183 181 176 168 159 153 149 147 144 141 137 134 131 129 129 129 130 131 132 134 137 141 148 154 160 165 169 171 171 169 165 161 156 152 149 147 146 145 144 144 145 147 147 145 143 141 140 140 140
206 206 204 201 199 199 200 201 197 192 187 185 186 189 192 194 194 192 190 187 181 173 165 158 152 146 141 139 137 136 134 131 129 128 129 129 129 129 131 133 137 141 146 151 156 160 164 167 167 165 162 158 154 151 148 148 147 147 148 149 150 151 149 146 142 140 140 141 142
204 202 200 198 198 199 200 197 191 185 181 181 184 187 189 190 187 185 182 178 171 163 157 152 146 141 136 134 133 133 132 131 130 130 130 130 130 130 130 132 137 142 146 149 152 155 159 163 163 162 161 158 155 152 151 151 151 150 151 151 152 151 148 144 143 142 142 142 142
203 200 198 198 197 197 195 191 185 180 176 175 178 183 185 182 176 172 169 168 164 160 155 151 146 141 139 137 137 135 134 134 132 131 130 129 130 130 130 133 138 142 146 147 149 152 157 161 162 163 162 160 156 152 150 150 148 148 147 147 148 148 147 146 147 148 147 145 141
203 200 197 197 196 195 191 186 181 176 173 172 174 177 177 173 168 165 164 164 162 159 155 151 148 145 141 141 141 139 137 136 135 134 132 130 129 129 131 136 139 142 144 146 147 152 158 163 165 164 162 158 152 147 145 144 142 141 142 144 145 147 150 152 154 156 155 152 147
206 202 199 197 195 193 189 184 179 175 173 172 171 171 170 167 165 164 165 165 163 159 154 151 148 145 142 141 142 141 141 140 139 136 133 130 128 130 133 137 138 140 143 146 149 155 162 166 164 160 155 151 146 143 141 140 139 140 141 143 146 150 153 155 158 160 161 160 156
208 205 201 198 195 192 188 184 179 176 174 172 171 169 166 164 164 167 168 167 163 159 156 153 150 148 147 145 144 144 144 143 141 138 134 132 131 134 137 139 139 140 143 149 155 162 167 165 158 154 151 148 144 142 141 140 140 140 142 144 148 152 155 157 159 161 164 165 165
209 207 204 200 196 192 189 185 181 178 175 173 172 169 168 166 167 169 170 169 164 160 157 156 155 155 156 153 150 146 144 144 143 142 141 138 138 140 143 144 145 145 147 152 161 166 165 158 154 152 151 148 145 143 142 141 140 141 142 145 149 154 158 160 160 162 166 171 173
209 208 206 202 198 194 190 186 183 180 178 175 173 171 170 170 171 173 173 171 167 163 161 161 163 164 163 161 154 147 142 141 143 145 145 143 143 145 147 149 150 151 151 155 161 161 157 154 154 154 153 150 147 146 145 143 141 141 142 145 148 154 159 163 163 163 167 174 175
209 208 207 204 201 196 192 188 186 184 180 177 174 174 174 175 176 177 176 173 170 167 166 167 169 169 167 164 158 151 148 147 150 150 149 148 149 148 148 147 151 152 153 155 156 153 152 153 156 157 157 154 151 149 148 145 143 142 142 144 146 150 156 161 163 162 163 166 167
209 209 208 206 203 199 195 191 188 185 182 179 178 178 180 181 182 181 179 176 174 172 172 172 172 172 171 168 166 165 166 168 168 167 165 164 162 158 152 146 147 150 153 155 156 153 152 154 158 161 160 158 156 153 150 148 145 145 147 148 148 149 151 154 157 156 154 153 155